[[{"header":{"parameterUnit":"m.s-1","parameterCategory":1,"la1":30.2991,"la2":30.254,"lo1":-89.0895,"lo2":-89.0444,"dy":0.0017,"dx":0.0017,"nx":28,"ny":28,"refTime":"2023-10-26T03:00:00:Z","depth":0,"parameterNumber":2,"parameterNumberName":"U-component_of_WINDS"},"data":[0,0,0,0,0,0,0,0,0,0,0,0,0,0,0,0,0,0,0,0,0,0,0,0,0,0,0,0,0,0,0,0,0,0,0,0,0,0,0,0,0,0,0,0,0,0,0,0,0,0,0,0,0,0,0,0,0,0,-2.7374,-2.7375,0,-2.747,-2.7471,-2.7472,-2.7461,-2.746,-2.7458,-2.7457,-2.7554,-2.7558,-2.7562,0,0,0,0,0,0,0,0,0,0,0,0,0,-2.7182,-2.7185,-2.7374,-2.7375,-2.7376,-2.747,-2.7471,-2.7472,-2.7461,-2.746,-2.7458,-2.7456,-2.7553,-2.7558,-2.7563,0,0,0,0,0,0,0,0,0,0,0,0,0,-2.727,-2.7187,-2.7374,-2.7382,-2.7384,-2.747,-2.7471,-2.7473,-2.7462,-2.746,-2.7457,-2.7455,-2.7551,-2.7557,-2.7563,-2.7646,0,0,-2.7582,-2.7584,0,0,0,0,0,0,0,0,-2.7265,-2.7277,-2.738,-2.7382,-2.7384,-2.7451,-2.7439,-2.7531,-2.7462,-2.7432,-2.7457,-2.7454,-2.7522,-2.753,-2.7553,-2.7651,-2.7655,-2.7582,-2.7586,-2.7588,-2.759,0,0,0,0,0,0,0,-2.7259,-2.7273,-2.7412,-2.7381,-2.7384,-2.7381,-2.7391,-2.7457,-2.7489,-2.7435,-2.7434,-2.7446,-2.7522,-2.7547,-2.7555,-2.7657,-2.7582,-2.7587,-2.7591,-2.7593,-2.7829,-2.7831,0,0,0,0,0,0,-2.7251,-2.7268,-2.7409,-2.7415,-2.7318,-2.7387,-2.7398,-2.7432,-2.7488,-2.7494,-2.7448,-2.7445,-2.7538,-2.7548,-2.7559,-2.766,-2.7588,-2.7594,-2.7597,-2.7826,-2.783,-2.7832,0,0,0,0,0,0,-2.7247,-2.7264,-2.7405,-2.7341,-2.7359,-2.7392,-2.7431,-2.7435,-2.746,-2.7498,-2.7503,-2.7467,-2.7537,-2.755,-2.7625,-2.7663,-2.7597,-2.7602,-2.7823,-2.7827,-2.7831,-2.7863,0,0,0,0,0,0,-2.7241,-2.7262,-2.7294,-2.7342,-2.7363,-2.7469,-2.7433,-2.7439,-2.747,-2.7468,-2.7517,-2.7523,-2.7536,-2.7616,-2.7631,-2.767,-2.7607,-2.782,-2.7825,-2.783,-2.7858,-2.7867,-2.7875,0,0,0,0,0,-2.7235,-2.7298,-2.7295,-2.7312,-2.7403,-2.7471,-2.7483,-2.7496,-2.7473,-2.7506,-2.753,-2.7522,-2.7657,-2.7624,-2.7641,-2.7682,-2.7818,-2.7824,-2.7829,-2.7855,-2.7866,-2.7875,0,0,0,0,0,0,-2.7253,-2.7305,-2.7302,-2.7383,-2.7423,-2.7469,-2.751,-2.7508,-2.7554,-2.755,-2.7564,-2.7576,-2.7651,-2.7675,-2.7637,-2.7767,-2.7734,-2.7744,-2.7748,-2.7759,-2.7767,-2.7758,-2.7612,0,0,0,0,0,-2.7266,-2.7318,-2.7361,-2.7428,-2.7449,-2.7476,-2.7507,-2.7514,-2.7556,-2.7572,-2.7602,-2.7643,-2.7695,-2.7728,-2.7778,-2.7863,-2.7874,-2.79,-2.7908,-2.7915,-2.7922,-2.7969,-2.7982,-2.7852,-2.7852,-2.7852,0,0,-2.7294,-2.733,-2.7361,-2.7433,-2.7465,-2.7518,-2.749,-2.7547,-2.7587,-2.7581,-2.7653,-2.7677,-2.7724,-2.7804,-2.7841,-2.7826,-2.7961,-2.7923,-2.7927,-2.7931,-2.7977,-2.7989,-2.8,-2.7856,-2.7855,-2.7855,0,0,-2.7373,-2.7405,-2.7465,-2.7498,-2.7546,-2.7565,-2.7579,-2.7627,-2.7643,-2.7716,-2.7713,-2.776,-2.7849,-2.7883,-2.7911,-2.8006,-2.8,-2.8022,-2.8064,-2.811,-2.812,-2.8129,-2.8162,-2.8174,-2.803,-2.803,-2.803,0,-2.7401,-2.7481,-2.7496,-2.7554,-2.7586,-2.7584,-2.7645,-2.7677,-2.7739,-2.7761,-2.7744,-2.7857,-2.7888,-2.7976,-2.7999,-2.8023,-2.804,-2.8015,-2.8117,-2.8127,-2.8135,-2.8167,-2.8179,-2.8032,-2.8032,-2.8031,-2.8031,0,-2.7513,-2.7569,-2.7612,-2.7673,-2.771,-2.7769,-2.7794,-2.783,-2.7835,-2.7856,-2.7931,-2.7969,-2.8027,-2.8049,-2.8054,-2.8139,-2.8128,-2.8114,-2.8081,-2.815,-2.818,-2.8192,-2.8035,-2.8034,-2.8034,-2.8033,0,0,-2.7602,-2.7673,-2.7688,-2.7716,-2.7771,-2.7815,-2.7875,-2.7932,-2.7963,-2.8007,-2.8057,-2.8134,-2.8122,-2.8155,-2.8165,-2.8205,-2.8277,-2.8186,-2.8188,-2.8201,-2.8373,-2.8381,-2.8395,-2.8275,-2.8277,-2.8279,-2.8368,0,-2.7685,-2.7791,-2.7807,-2.79,-2.7952,-2.7953,-2.8006,-2.8045,-2.8067,-2.8114,-2.8139,-2.8192,-2.8173,-2.8193,-2.8233,-2.826,-2.8311,-2.8254,-2.8321,-2.8323,-2.8307,-2.8411,-2.842,-2.8502,-2.838,-2.8382,-2.8384,0,-2.7794,-2.7842,-2.7941,-2.799,-2.8012,-2.8059,-2.8113,-2.8159,-2.8205,-2.8218,-2.8256,-2.8261,-2.8324,-2.8291,-2.8379,-2.8339,-2.8368,-2.8386,-2.8389,-2.8394,-2.8356,-2.8417,-2.8529,-2.854,-2.8403,-2.8401,-2.84,0,-2.7848,-2.7938,-2.8008,-2.8032,-2.8092,-2.8125,-2.8151,-2.8195,-2.8229,-2.8277,-2.8299,-2.8354,-2.8384,-2.8427,-2.8447,-2.8421,-2.8533,-2.8501,-2.8545,-2.8544,-2.8566,-2.8564,-2.8682,-2.8588,-2.8588,-2.8588,-2.8588,0,-2.7938,-2.7997,-2.8033,-2.8076,-2.8144,-2.8163,-2.823,-2.8255,-2.8295,-2.8343,-2.8349,-2.8394,-2.8419,-2.8468,-2.8485,-2.8555,-2.8569,-2.8581,-2.8584,-2.8579,-2.8577,-2.8597,-2.8591,-2.8591,-2.859,-2.859,-2.8589,0,-2.8008,-2.8034,-2.8111,-2.8162,-2.8176,-2.8224,-2.8267,-2.831,-2.8333,-2.8394,-2.841,-2.8445,-2.8504,-2.8529,-2.8602,-2.8613,-2.8692,-2.8692,-2.8677,-2.8677,-2.8719,-2.8714,-2.8852,-2.8871,-2.8766,-2.8767,-2.8768,0,-2.8062,-2.8108,-2.8164,-2.8198,-2.8225,-2.8278,-2.8313,-2.8335,-2.8371,-2.8429,-2.8464,-2.8523,-2.8571,-2.8666,-2.8698,-2.8754,-2.8754,-2.8799,-2.8762,-2.8756,-2.8754,-2.875,-2.8754,-2.8805,-2.8806,-2.8807,-2.8807,0,-2.8155,-2.8166,-2.8216,-2.8272,-2.8313,-2.8358,-2.8402,-2.8429,-2.8458,-2.8499,-2.8559,-2.8597,-2.8671,-2.873,-2.8788,-2.8816,-2.8817,-2.8819,-2.8832,-2.8826,-2.8815,-2.8821,-2.8693,-2.8815,-2.8814,-2.8814,-2.8813,-2.8813,-2.8218,-2.8259,-2.8306,-2.8362,-2.8397,-2.8439,-2.8481,-2.851,-2.8561,-2.8623,-2.8634,-2.8698,-2.8745,-2.8823,-2.8854,-2.8905,-2.8894,-2.8912,-2.8917,-2.8921,-2.8923,-2.8809,-2.8916,-2.8916,-2.8915,-2.8915,-2.8915,0,-2.831,-2.8341,-2.8392,-2.8454,-2.8498,-2.8497,-2.8546,-2.8583,-2.8639,-2.8683,-2.8731,-2.8801,-2.8859,-2.8897,-2.8955,-2.8989,-2.8991,-2.9004,-2.9,-2.9007,-2.893,-2.8912,-2.9001,-2.9001,-2.9001,-2.9001,-2.9001,-2.9001,-2.8363,-2.8433,-2.8451,-2.8539,-2.8569,-2.8632,-2.866,-2.8699,-2.8734,-2.8812,-2.886,-2.8885,-2.8927,-2.8989,-2.9042,-2.9052,-2.9072,-2.9086,-2.9095,-2.9021,-2.9012,-2.9003,-2.8987,-2.909,-2.909,-2.9167,-2.9168,-2.9168]},{"header":{"parameterUnit":"m.s-1","parameterCategory":1,"la1":30.2991,"la2":30.254,"lo1":-89.0895,"lo2":-89.0444,"dy":0.0017,"dx":0.0017,"nx":28,"ny":28,"refTime":"2023-10-26T03:00:00:Z","depth":0,"parameterNumber":3,"parameterNumberName":"V-component_of_WINDS"},"data":[0,0,0,0,0,0,0,0,0,0,0,0,0,0,0,0,0,0,0,0,0,0,0,0,0,0,0,0,0,0,0,0,0,0,0,0,0,0,0,0,0,0,0,0,0,0,0,0,0,0,0,0,0,0,0,0,0,0,0.9061,0.9062,0,0.9153,0.9154,0.9155,0.9189,0.9189,0.9189,0.9188,0.9286,0.9288,0.9291,0,0,0,0,0,0,0,0,0,0,0,0,0,0.8919,0.8921,0.906,0.9062,0.9063,0.9152,0.9154,0.9155,0.9189,0.9189,0.9189,0.9188,0.9285,0.9288,0.9291,0,0,0,0,0,0,0,0,0,0,0,0,0,0.8993,0.8922,0.906,0.9091,0.9094,0.9152,0.9154,0.9155,0.9189,0.9189,0.9189,0.9188,0.9284,0.9288,0.9292,0.9327,0,0,0.9305,0.9307,0,0,0,0,0,0,0,0,0.8988,0.8998,0.9085,0.9089,0.9093,0.9159,0.9139,0.9213,0.919,0.9153,0.9188,0.9188,0.9244,0.9252,0.927,0.9332,0.9336,0.9305,0.9308,0.931,0.9311,0,0,0,0,0,0,0,0.8983,0.8994,0.9097,0.9086,0.9091,0.9101,0.9111,0.9154,0.92,0.9157,0.9159,0.917,0.9246,0.9266,0.9272,0.9337,0.9305,0.9309,0.9312,0.9313,0.9436,0.9436,0,0,0,0,0,0,0.8973,0.899,0.9094,0.91,0.9038,0.9104,0.9115,0.9138,0.92,0.9209,0.917,0.9171,0.9258,0.9267,0.9276,0.9323,0.931,0.9314,0.9316,0.9435,0.9436,0.9436,0,0,0,0,0,0,0.8969,0.8982,0.909,0.9046,0.906,0.9107,0.9133,0.914,0.916,0.921,0.9219,0.9181,0.9259,0.927,0.9315,0.9327,0.9316,0.932,0.9434,0.9435,0.9436,0.9416,0,0,0,0,0,0,0.8965,0.898,0.8993,0.9045,0.9062,0.9126,0.9133,0.9142,0.9167,0.9169,0.9223,0.9231,0.9259,0.9308,0.9319,0.9332,0.9323,0.9433,0.9435,0.9436,0.9416,0.9416,0.9416,0,0,0,0,0,0.896,0.8984,0.8993,0.9006,0.9079,0.9127,0.9136,0.9167,0.9168,0.9182,0.9214,0.9229,0.9323,0.9312,0.9325,0.934,0.9433,0.9434,0.9436,0.9416,0.9416,0.9416,0,0,0,0,0,0,0.8932,0.8991,0.9002,0.9043,0.908,0.9132,0.9151,0.9167,0.9204,0.9205,0.9243,0.9254,0.9296,0.9323,0.9309,0.9379,0.9379,0.9383,0.936,0.9361,0.9361,0.9354,0.9327,0,0,0,0,0,0.893,0.8962,0.9013,0.9045,0.9062,0.9103,0.9125,0.9146,0.9185,0.9201,0.9237,0.9276,0.9314,0.9339,0.9377,0.942,0.9433,0.9437,0.9437,0.9437,0.944,0.9467,0.947,0.9441,0.9441,0.9441,0,0,0.8927,0.8964,0.8982,0.904,0.907,0.9105,0.9116,0.9151,0.9178,0.9207,0.9251,0.9279,0.9325,0.9369,0.9391,0.9393,0.9451,0.9439,0.9438,0.9442,0.9469,0.9472,0.9474,0.9443,0.9442,0.9442,0,0,0.894,0.897,0.9,0.9031,0.9077,0.9105,0.9112,0.9163,0.9182,0.9227,0.925,0.9283,0.9348,0.9381,0.9406,0.9433,0.9449,0.9445,0.9447,0.9472,0.9475,0.9477,0.9488,0.9492,0.9448,0.9448,0.9448,0,0.8931,0.8982,0.9014,0.9049,0.9075,0.9102,0.9135,0.9163,0.922,0.9237,0.9238,0.9322,0.9355,0.9408,0.9415,0.9434,0.9445,0.9439,0.9472,0.9474,0.9477,0.9488,0.9492,0.9447,0.9447,0.9447,0.9447,0,0.897,0.9005,0.9025,0.9078,0.9106,0.9139,0.9178,0.9203,0.9222,0.925,0.9297,0.9337,0.9385,0.9399,0.9418,0.9456,0.9456,0.9464,0.9466,0.9478,0.949,0.9494,0.9446,0.9446,0.9446,0.9446,0,0,0.8966,0.9038,0.9045,0.907,0.9124,0.9153,0.9189,0.9235,0.9256,0.9295,0.9327,0.9382,0.9391,0.9419,0.9442,0.9464,0.9486,0.947,0.9472,0.9473,0.9533,0.9528,0.9532,0.9497,0.9498,0.9499,0.953,0,0.8987,0.905,0.9081,0.9132,0.9166,0.9194,0.9226,0.9263,0.9291,0.9326,0.9357,0.9396,0.9403,0.942,0.9444,0.9478,0.9499,0.9476,0.9529,0.9531,0.9517,0.9538,0.9531,0.9559,0.9534,0.9535,0.9536,0,0.9019,0.9057,0.9111,0.9163,0.9179,0.9206,0.9252,0.9284,0.9328,0.9347,0.938,0.9403,0.9443,0.9442,0.95,0.9484,0.9508,0.9528,0.953,0.9537,0.9534,0.9546,0.9568,0.9572,0.9543,0.9542,0.9542,0,0.9012,0.9078,0.9119,0.914,0.9201,0.922,0.9246,0.929,0.9316,0.9357,0.9375,0.9421,0.9446,0.9481,0.9516,0.9512,0.9572,0.9573,0.959,0.9589,0.9602,0.96,0.9629,0.9615,0.9615,0.9615,0.9615,0,0.9033,0.9065,0.9117,0.9142,0.9181,0.9217,0.9254,0.9283,0.9322,0.9355,0.9382,0.9413,0.9457,0.9494,0.9522,0.9567,0.9578,0.9595,0.9603,0.9594,0.9591,0.961,0.9609,0.9616,0.9616,0.9616,0.9615,0,0.9032,0.9067,0.9115,0.9169,0.9183,0.9209,0.9257,0.9284,0.9313,0.9355,0.9367,0.9414,0.9459,0.9498,0.9557,0.9576,0.9623,0.9631,0.9608,0.9612,0.9628,0.9626,0.967,0.9678,0.9658,0.9658,0.9658,0,0.9042,0.9068,0.9125,0.9149,0.9175,0.9213,0.924,0.9277,0.9305,0.9359,0.938,0.9427,0.9466,0.9538,0.9578,0.9625,0.9635,0.9647,0.9642,0.9633,0.9637,0.9636,0.9639,0.9648,0.9648,0.9648,0.9648,0,0.9058,0.9075,0.9113,0.9158,0.919,0.9227,0.9265,0.9283,0.9328,0.9359,0.9405,0.9436,0.9497,0.9544,0.9596,0.9625,0.9645,0.9649,0.9656,0.9647,0.9633,0.9642,0.961,0.9648,0.9648,0.9648,0.9648,0.9648,0.9064,0.9089,0.9134,0.9176,0.9208,0.9244,0.9272,0.9306,0.9345,0.9397,0.9417,0.9465,0.9512,0.9582,0.9612,0.9652,0.9655,0.9664,0.9666,0.9668,0.9668,0.9626,0.9661,0.9661,0.9661,0.9661,0.9661,0,0.9083,0.9113,0.9151,0.9204,0.9238,0.9252,0.9296,0.9324,0.9365,0.9406,0.9445,0.95,0.9546,0.9591,0.964,0.9663,0.9674,0.9675,0.9675,0.9682,0.9662,0.9651,0.9666,0.9666,0.9666,0.9666,0.9666,0.9666,0.9096,0.9139,0.9162,0.9223,0.9254,0.93,0.9324,0.9358,0.9391,0.9451,0.9489,0.9518,0.9562,0.9615,0.9659,0.9671,0.9689,0.9688,0.9703,0.9684,0.9683,0.9682,0.9672,0.9691,0.9691,0.972,0.972,0.972]}]]